STARLINK-1734, 46325

Orbit data source: Space-Track

STARLINK-1734, 46325 is a payload satellite owned by SpaceX/Seattle (US) in LEO that was launched on Thu, 03 Sep 2020 UTC via an FALCON 9 launch vehicle from the Air Force Eastern Test Range (AFETR). Payload-class satellites include a variety of spacecraft equipped with specific instruments for various scientific and technological missions. These include communications satellites like Starlink; space stations such as the ISS; scientific satellites like the Hubble; Earth observation satellites from companies like Planet Labs, Umbra, and HawkEye 360; GPS; miniature CubeSats for education and research; and military/defense satellites.

Loading next visibility...
Identifier
46325, 2020-062A
Orbit
LEO
Last TLE update
13 hours ago
Origin
Manufacturer
SpaceX/Seattle
Mission
Partially operational Commercial Communications
Bus & Motor
STARLINK, Unknown motor
Mass
260 kg wet, ~248 kg dry
Launch date (UTC)
2020-09-03 (5 years ago)
Launch vehicle
FALCON 9
Launch site
Air Force Eastern Test Range (AFETR)
Object type
Payload
Rocket body
Debris
Shape & HBR
Box + 1 Pan, 8.86 m
Radar Cross Section
13.562 m², Large (>1 m²)

Expand to show TLE details & history

TLE from 13 hours ago
0 STARLINK-1734
1 46325U 20062A   25181.86140370  .00075987  00000-0  22138-2 0  9990
2 46325  53.0351   4.4046 0008948  88.9897 271.2129 15.34697676267828
Epoch: 2025-06-30T20:40Z
TLE epoch observation values (Epoch: 2025-06-30T20:40:25.279Z)
Latitude
-0.00005°
Longitude
135.1341°
Altitude
462.583 km
Speed
7.637 km/s
True Right ascension
00h 17m 37s
True Declination
0° 00' 00"
Sunlit
Object was in daylight at epoch
Visualization orbit readout
Latitude
8.76888°
Longitude
-54.08281°
Altitude
460.495 km
Speed
7.639 km/s
Apparent Right ascension
10h 47m 17s
Apparent Declination
-15° 08' 10"
Sunlit
Object is in daylight
Visualization observer readout
Local Sidereal Time
21:32:54
Azimuth
321.484° NNW
Elevation
-60.373°
Doppler factor
1
Orbital elements
Apogee altitude
468.216 km
Perigee altitude
455.975 km
Semi-major axis
6,840.233 km
Eccentricity
0.00089
Inclination
53.0351°
RAAN
4.4046°
Arg. of periapsis
88.9897°
True anomaly
Unknown
Mean anomaly
271.2129°
Eccentric anomaly
Unknown
Mean motion
3.83651 °/min
Orbital period
93.84 mins
BSTAR
0.0022138
Loading maneuver chart data...
Loading SW <> Apogee altitude chart data...
Loading historical data...
Loading historical data...
Loading historical data...
Loading historical data...
Loading historical data...
Loading historical data...
Loading historical data...

STARLINK-1734 Visibility forecast

Observer location: undefined°, undefined°

Span
Click to sort rows by Start time (UTC) header in descending order
Start Az.
Max El. time (UTC)
Max El. Az.
Max El.
End time (UTC)
End Az.
5 mins2025-07-01 14:01:32.701Z178.903° S2025-07-01 14:03:32.701Z137.336° SSE22.275°2025-07-01 14:06:32.701Z76.556° E
5 mins2025-07-01 15:39:32.701Z273.1° WNW2025-07-01 15:41:32.701Z340.494° N31.197°2025-07-01 15:44:32.701Z37.056° NE
5 mins2025-07-01 20:34:32.701Z332.95° NNW2025-07-01 20:37:32.701Z39.283° NE23.635°2025-07-01 20:39:32.701Z80.8° E
4 mins2025-07-01 22:13:32.701Z275.578° WNW2025-07-01 22:14:32.701Z242.802° WSW32.605°2025-07-01 22:17:32.701Z158.97° S
|